Regional Weather Roundup
Issued by NWS

Home | Current Version | Previous Version | Graphics & Text | Print | Product List | Glossary On
Versions: 1 2 3 4 5 6 7 8 9 10 11 12 13 14 15 16 17 18 19 20 21 22 23 24 25 26 27 28 29 30 31 32 33 34 35 36 37 38 39 40 41 42 43 44 45 46 47 48 49 50
000
ASUS43 KBIS 281910
RWRND

NORTH DAKOTA REGIONAL WEATHER ROUNDUP
NATIONAL WEATHER SERVICE BISMARCK ND
200 PM CDT THU JUL 28 2016

NOTE: "FAIR" INDICATES FEW OR NO CLOUDS BELOW 12,000 FEET WITH NO
SIGNIFICANT WEATHER AND/OR OBSTRUCTIONS TO VISIBILITY.


NDZ001>003-009>011-017-282000-
NORTHWEST NORTH DAKOTA

CITY           SKY/WX    TMP DP  RH WIND       PRES   REMARKS
WILLISTON      PTSUNNY   74  53  48 VRB6      30.16F
MINOT          PTSUNNY   77  53  43 NE9       30.16S
MINOT AFB      MOSUNNY   72  51  48 NE6       30.15
$$

NDZ018>021-031>035-040>046-282000-
SOUTHWEST NORTH DAKOTA

CITY           SKY/WX    TMP DP  RH WIND       PRES   REMARKS
BISMARCK       CLOUDY    71  56  58 NE6       30.15S
DICKINSON      CLOUDY    62  59  90 E9        30.16S
GARRISON         N/A     68  56  65 VRB5      30.17S
HETTINGER ARPT PTSUNNY   71  59  65 SE10      30.15F
$$

NDZ004>008-012>016-024-026-027-054-282000-
NORTHEAST NORTH DAKOTA

CITY           SKY/WX    TMP DP  RH WIND       PRES   REMARKS
GRAND FORKS    MOSUNNY   76  58  53 NE7       30.12R
GRND FRKS AFB  SUNNY     74  57  55 NE7       30.13
DEVILS LAKE    CLOUDY    69  57  65 NE3       30.16S
$$

NDZ022-023-025-028>030-036>039-047>053-282000-
SOUTHEAST NORTH DAKOTA

CITY           SKY/WX    TMP DP  RH WIND       PRES   REMARKS
FARGO          MOSUNNY   78  62  57 N7        30.08S
JAMESTOWN      MOSUNNY   74  61  63 SE5       30.11F
$$




USA.gov is the U.S. government's official web portal to all federal, state and local government web resources and services.